Weather History for KP68 - October, 2011

Change the Weather History Date:

Sunday, October 2, 2011

  Actual Average Record
Temperature  
Mean Temperature 64 °F 52 °F  
Max Temperature 81 °F 71 °F 93 °F (1980)
Min Temperature 47 °F 33 °F 20 °F (1985)
Degree Days  
Heating Degree Days 1 13  
Month to date heating degree days 1 26  
Since 1 July heating degree days 86 290  
Cooling Degree Days 0 0  
Month to date cooling degree days 1 0  
Year to date cooling degree days 386 288  
Growing Degree Days 16 (Base 50)    
Moisture  
Dew Point 30 °F    
Average Humidity 29    
Maximum Humidity 46    
Minimum Humidity 12    
Precipitation  
Precipitation 0.00 in 0.02 in 0.38 in (2006)
Month to date precipitation 0.00 0.04  
Year to date precipitation 6.88 6.91  
Sea Level Pressure  
Sea Level Pressure 29.90 in    
Wind  
Wind Speed 10 mph (South)    
Max Wind Speed 28 mph    
Max Gust Speed 35 mph    
T = Trace of Precipitation, MM = Missing Value Source: NWS Daily Summary

Daily Weather History Graph

Daily Weather History Graph

Search for Another Location

Airport or City:

Trip Planner

Search our weather history database for the weather conditions in past years. The results will help you decide how hot, cold, wet, or windy it might be!

Date:

Astronomy

Oct. 02, 2011 Rise Set
Actual Time 6:40 AM PDT 6:25 PM PDT
Civil Twilight 6:14 AM PDT 6:51 PM PDT
Nautical Twilight 5:42 AM PDT 7:23 PM PDT
Astronomical Twilight 5:11 AM PDT 7:54 PM PDT
Moon 12:50 PM PDT (10/2) 10:29 PM PDT (10/2)
Length of Visible Light 12h 37m
Length of Day
11h 44m
Waxing Crescent, 36% of the Moon is Illuminated
Oct 2
Waxing Crescent
Oct 3
First Quarter
Oct 11
Full
Oct 19
Last Quarter
Oct 26
New

Hourly Weather History & Observations

Time (PDT) Temp. Dew Point Humidity Pressure Visibility Wind Dir Wind Speed Gust Speed Precip Events Conditions
12:53 AM 61.0 °F 34.0 °F 36% 29.89 in - ESE 4.6 mph - N/A   Unknown
1:53 AM 55.0 °F 33.1 °F 43% 29.91 in - SSE 4.6 mph - N/A   Unknown
3:53 AM 55.0 °F 33.1 °F 43% 29.91 in - Calm Calm - N/A   Unknown
4:53 AM 53.1 °F 33.1 °F 47% 29.93 in - SE 8.1 mph - N/A   Unknown
5:53 AM 54.0 °F 33.1 °F 45% 29.93 in - SSE 4.6 mph - N/A   Unknown
6:53 AM 55.0 °F 34.0 °F 45% 29.97 in - South 6.9 mph - N/A   Unknown
7:53 AM 59.0 °F 35.1 °F 41% 29.99 in - Calm Calm - N/A   Unknown
8:53 AM 66.9 °F 36.0 °F 32% 29.96 in - South 10.4 mph - N/A   Unknown
9:53 AM 70.0 °F 33.1 °F 26% 29.97 in - South 13.8 mph - N/A   Unknown
10:53 AM 73.0 °F 32.0 °F 22% 29.95 in - South 9.2 mph 16.1 mph N/A   Unknown
11:53 AM 75.9 °F 30.9 °F 19% 29.91 in - South 13.8 mph 19.6 mph N/A   Unknown
12:53 PM 77.0 °F 28.9 °F 17% 29.88 in - South 15.0 mph 18.4 mph N/A   Unknown
1:53 PM 78.1 °F 28.0 °F 16% 29.88 in - South 12.7 mph 19.6 mph N/A   Unknown
2:53 PM 79.0 °F 25.0 °F 14% 29.84 in - SSW 10.4 mph 17.3 mph N/A   Unknown
3:53 PM 79.0 °F 21.9 °F 12% 29.84 in - South 9.2 mph 19.6 mph N/A   Unknown
4:53 PM 79.0 °F 25.0 °F 14% 29.84 in - SSW 12.7 mph - N/A   Unknown
5:53 PM 77.0 °F 25.0 °F 15% 29.84 in - South 12.7 mph - N/A   Unknown
6:53 PM 73.0 °F 26.1 °F 17% 29.86 in - South 9.2 mph - N/A   Unknown
7:53 PM 63.0 °F 27.0 °F 26% 29.90 in - SSE 9.2 mph - N/A   Unknown
8:53 PM 63.0 °F 28.9 °F 28% 29.87 in - SSE 10.4 mph - N/A   Unknown
9:53 PM 63.0 °F 30.0 °F 29% 29.86 in - SSE 12.7 mph - N/A   Unknown
10:53 PM 64.0 °F 30.0 °F 28% 29.85 in - SSE 16.1 mph - N/A   Unknown
11:53 PM 63.0 °F 30.9 °F 30% 29.84 in - SSE 17.3 mph - N/A   Unknown